Location: Cutler
(25.6150°N, 80.3110°W)
Time: 04:34:32
(UTC-05:00)

Hubble Space Telescope - Pass Details

Date: 19 November 2017
Orbit: 537 x 541 km, 28.5° (Epoch: 23 November)

Event Time Altitude Azimuth Distance (km) Brightness Sun altitude
Exits shadow 05:54:50 15° 278° (W) 1,480 2.4 -10.9°
Maximum altitude 05:58:06 58° 356° (N) 621 1.0 -10.2°
Drops below altitude 10° 06:02:10 10° 76° (ENE) 1,782 4.4 -9.3°
Sets 06:04:27 0° 80° (E) 2,673 5.6 -8.8°
